EW5254 Weather Reports


Display with metric or nautical units.
time (UTC)temp
F
wind
direction
speed
MPH
gust
MPH
rain 1hr
in
rain 24hr
in
rain mn
in
humidity
%
barometer
mb
20260507210058 63 53 8.0 17.0 0.00 0.00 0.00 64 1004.2
20260507204556 63 74 9.0 17.0 0.00 0.00 0.00 65 1004.5
20260507203055 63 58 8.0 16.0 0.00 0.00 0.00 64 1004.8
20260507201556 63 46 8.0 15.0 0.00 0.00 0.00 66 1004.9
20260507200054 61 67 10.0 18.0 0.00 0.00 0.00 67 1004.9
20260507194553 60 80 9.0 18.0 0.00 0.00 0.00 69 1005.0
20260507193057 60 65 10.0 17.0 0.00 0.00 0.00 68 1005.2
20260507191552 59 65 12.0 18.0 0.00 0.00 0.00 70 1005.5
20260507190050 58 69 11.0 17.0 0.00 0.00 0.00 72 1005.7
20260507184551 58 24 10.0 16.0 0.00 0.00 0.00 74 1006.0
20260507183050 57 90 10.0 17.0 0.00 0.00 0.00 76 1006.1
20260507181550 56 88 10.0 16.0 0.00 0.00 0.00 77 1006.3
20260507180051 56 84 8.0 16.0 0.00 0.00 0.00 76 1006.2
20260507174616 57 21 9.0 17.0 0.00 0.00 0.00 73 1006.3
20260507173048 58 44 8.0 13.0 0.00 0.00 0.00 70 1006.5
20260507171602 57 31 9.0 15.0 0.00 0.00 0.00 70 1006.4
20260507170046 58 48 11.0 16.0 0.00 0.00 0.00 67 1006.5
20260507164552 56 36 7.0 16.0 0.00 0.00 0.00 68 1006.6
20260507163045 56 11 7.0 13.0 0.00 0.00 0.00 67 1006.8
20260507161550 56 72 8.0 16.0 0.00 0.00 0.00 67 1006.7
20260507160110 56 49 8.0 16.0 0.00 0.00 0.00 68 1006.8
20260507154544 55 42 8.0 15.0 0.00 0.00 0.00 70 1006.6
20260507153044 54 30 10.0 15.0 0.00 0.00 0.00 72 1006.8
20260507151543 52 68 9.0 15.0 0.00 0.00 0.00 76 1006.9
20260507150043 51 74 8.0 13.0 0.00 0.00 0.00 80 1006.8
20260507144543 51 76 8.0 16.0 0.00 0.00 0.00 79 1006.8
20260507143040 51 79 9.0 14.0 0.00 0.00 0.00 75 1006.8
20260507141538 52 66 8.0 12.0 0.00 0.00 0.00 75 1006.8
20260507140045 49 74 9.0 15.0 0.00 0.00 0.00 75 1006.8
20260507134536 49 75 8.0 15.0 0.00 0.00 0.00 73 1006.5
20260507133035 49 59 10.0 18.0 0.00 0.00 0.00 71 1006.5
20260507131604 48 80 8.0 16.0 0.00 0.00 0.00 72 1006.3
20260507130029 48 85 10.0 17.0 0.00 0.00 0.00 71 1006.2
20260507124530 48 100 10.0 14.0 0.00 0.00 0.00 69 1006.0
20260507123030 48 89 9.0 16.0 0.00 0.00 0.00 68 1005.8
20260507121523 48 83 11.0 20.0 0.00 0.00 0.00 67 1005.6
20260507120029 49 83 11.0 17.0 0.00 0.00 0.00 65 1005.3
20260507114516 50 65 13.0 21.0 0.00 0.00 0.00 62 1005.3
20260507113026 51 102 10.0 19.0 0.00 0.00 0.00 58 1005.1
20260507111507 55 83 10.0 15.0 0.00 0.00 0.00 49 1004.7
20260507110004 59 49 4.0 8.0 0.00 0.00 0.00 48 1004.3
20260507104503 62 65 4.0 6.0 0.00 0.00 0.00 34 1004.3
20260507103100 62 76 4.0 6.0 0.00 0.00 0.00 36 1003.9
20260507101559 62 76 3.0 5.0 0.00 0.00 0.00 35 1004.0
20260507094611 62 71 4.0 8.0 0.00 0.00 0.00 35 1003.9
20260507093057 62 67 3.0 6.0 0.00 0.00 0.00 33 1003.8
20260507091555 63 65 3.0 5.0 0.00 0.00 0.00 34 1003.8
20260507090055 63 72 3.0 5.0 0.00 0.00 0.00 35 1003.9
20260507084559 63 72 4.0 8.0 0.00 0.00 0.00 34 1004.0
20260507083053 62 96 3.0 4.0 0.00 0.00 0.00 47 1004.1
20260507081552 62 96 2.0 6.0 0.00 0.00 0.00 48 1004.1
20260507080053 62 97 2.0 7.0 0.00 0.00 0.00 48 1004.3
20260507074552 62 96 3.0 6.0 0.00 0.00 0.00 49 1004.3
20260507073051 62 121 4.0 8.0 0.00 0.00 0.00 49 1004.3
20260507071548 62 108 5.0 8.0 0.00 0.00 0.00 51 1004.2
20260507070057 62 107 4.0 9.0 0.00 0.00 0.00 53 1004.1
20260507064547 62 97 5.0 10.0 0.00 0.00 0.00 56 1004.1
20260507063046 62 153 3.0 11.0 0.00 0.00 0.00 55 1004.2
20260507061541 63 98 4.0 6.0 0.00 0.00 0.00 52 1004.1
20260507060043 64 67 4.0 5.0 0.00 0.00 0.00 46 1003.9
20260507054539 64 125 0.0 2.0 0.00 0.00 0.00 39 1003.8
20260507053032 64 125 0.0 3.0 0.00 0.00 0.00 42 1003.8
20260507051530 64 125 0.0 7.0 0.00 0.00 0.00 40 1003.9
20260507050049 64 119 3.0 6.0 0.00 0.00 0.00 41 1003.8
20260507044525 65 111 2.0 8.0 0.00 0.00 0.00 34 1003.8
20260507043025 66 102 4.0 7.0 0.00 0.00 0.00 29 1003.9
20260507041526 66 109 1.0 6.0 0.00 0.00 0.00 26 1003.8
20260507040024 68 28 2.0 5.0 0.00 0.00 0.00 22 1003.5
20260507034526 69 175 1.0 7.0 0.00 0.00 0.00 22 1003.2
20260507033029 69 191 5.0 10.0 0.00 0.00 0.00 21 1003.1
20260507031517 70 189 5.0 9.0 0.00 0.00 0.00 19 1003.0
20260507030016 70 190 4.0 6.0 0.00 0.00 0.00 18 1002.7
20260507024517 70 190 4.0 6.0 0.00 0.00 0.00 18 1002.5
20260507023015 70 197 4.0 6.0 0.00 0.00 0.00 18 1002.2
20260507021521 70 209 3.0 5.0 0.00 0.00 0.00 18 1002.1
20260507020020 71 209 3.0 6.0 0.00 0.00 0.00 19 1001.7
20260507014519 71 207 4.0 6.0 0.00 0.00 0.00 18 1001.5
20260507013012 72 224 3.0 6.0 0.00 0.00 0.00 18 1001.3
20260507011517 74 242 5.0 8.0 0.00 0.00 0.00 17 1001.2
20260507010026 75 252 6.0 10.0 0.00 0.00 0.00 16 1001.0
20260507004510 75 240 6.0 10.0 0.00 0.00 0.00 16 1000.9
20260507003009 74 244 5.0 11.0 0.00 0.00 0.00 17 1000.8
20260507001509 74 252 7.0 12.0 0.00 0.00 0.00 17 1000.6
20260507000008 74 240 8.0 15.0 0.00 0.00 0.00 16 1000.6
20260506234508 75 244 6.0 12.0 0.00 0.00 0.00 15 1000.6
20260506233008 75 325 6.0 13.0 0.00 0.00 0.00 16 1000.6
20260506231506 75 290 8.0 15.0 0.00 0.00 0.00 15 1000.6
20260506230005 75 268 9.0 16.0 0.00 0.00 0.00 15 1000.5
20260506224505 76 249 11.0 16.0 0.00 0.00 0.00 14 1000.5
20260506223004 76 290 11.0 17.0 0.00 0.00 0.00 13 1000.5
20260506221504 77 274 8.0 16.0 0.00 0.00 0.00 13 1000.4
20260506220003 77 271 7.0 16.0 0.00 0.00 0.00 14 1000.3
20260506214502 77 297 9.0 19.0 0.00 0.00 0.00 14 1000.4
20260506213001 77 279 10.0 17.0 0.00 0.00 0.00 13 1000.5
20260506211559 77 251 8.0 13.0 0.00 0.00 0.00 16 1000.6